Time,TemperatureF,DewpointF,PressureIn,WindDirection,WindDirectionDegrees,WindSpeedMPH,WindSpeedGustMPH,Humidity,HourlyPrecipIn,Conditions,Clouds,dailyrainin,SoftwareType,DateUTC
2013-02-15 00:13:00,36.4,33.0,29.74,SSW,209,2.0,7.0,86,0.00,,,0.00,weatherlink.com 1.10,2013-02-15 05:13:00,
2013-02-15 00:28:00,36.8,32.0,29.74,SSW,199,3.0,6.0,84,0.00,,,0.00,weatherlink.com 1.10,2013-02-15 05:28:00,
2013-02-15 00:43:00,37.1,33.0,29.75,SSW,194,0.0,11.0,84,0.00,,,0.00,weatherlink.com 1.10,2013-02-15 05:43:00,
2013-02-15 00:58:00,37.2,33.0,29.74,SSE,151,1.0,5.0,83,0.00,,,0.00,weatherlink.com 1.10,2013-02-15 05:58:00,
2013-02-15 01:13:00,37.1,32.0,29.74,East,98,2.0,4.0,83,0.00,,,0.00,weatherlink.com 1.10,2013-02-15 06:13:00,
2013-02-15 01:28:00,37.1,32.0,29.73,South,185,0.0,8.0,83,0.00,,,0.00,weatherlink.com 1.10,2013-02-15 06:28:00,
2013-02-15 01:43:00,36.9,32.0,29.74,South,172,1.0,4.0,83,0.00,,,0.00,weatherlink.com 1.10,2013-02-15 06:43:00,
2013-02-15 01:58:00,36.6,32.0,29.73,SSE,152,1.0,5.0,83,0.00,,,0.00,weatherlink.com 1.10,2013-02-15 06:58:00,
2013-02-15 02:13:00,37.2,32.0,29.73,SSE,157,1.0,12.0,82,0.00,,,0.00,weatherlink.com 1.10,2013-02-15 07:13:00,
2013-02-15 02:28:00,37.4,32.0,29.73,NE,45,0.0,8.0,81,0.00,,,0.00,weatherlink.com 1.10,2013-02-15 07:28:00,
2013-02-15 02:43:00,37.3,32.0,29.73,SSW,210,1.0,5.0,81,0.00,,,0.00,weatherlink.com 1.10,2013-02-15 07:43:00,
2013-02-15 02:58:00,37.2,32.0,29.73,SW,228,2.0,6.0,81,0.00,,,0.00,weatherlink.com 1.10,2013-02-15 07:58:00,
2013-02-15 03:13:00,37.3,32.0,29.73,ESE,112,1.0,4.0,81,0.00,,,0.00,weatherlink.com 1.10,2013-02-15 08:13:00,
2013-02-15 03:28:00,37.2,32.0,29.72,SSW,197,0.0,7.0,82,0.00,,,0.00,weatherlink.com 1.10,2013-02-15 08:28:00,
2013-02-15 03:43:00,37.2,32.0,29.72,SSW,212,2.0,4.0,82,0.00,,,0.00,weatherlink.com 1.10,2013-02-15 08:43:00,
2013-02-15 03:58:00,37.3,32.0,29.71,SSW,207,1.0,4.0,82,0.00,,,0.00,weatherlink.com 1.10,2013-02-15 08:58:00,
2013-02-15 04:13:00,37.4,32.0,29.72,SSW,201,0.0,5.0,82,0.00,,,0.00,weatherlink.com 1.10,2013-02-15 09:13:00,
2013-02-15 04:28:00,37.1,32.0,29.72,SE,134,0.0,4.0,82,0.00,,,0.00,weatherlink.com 1.10,2013-02-15 09:28:00,
2013-02-15 04:43:00,36.6,32.0,29.73,SSW,202,0.0,2.0,83,0.00,,,0.00,weatherlink.com 1.10,2013-02-15 09:43:00,
2013-02-15 04:58:00,38.2,33.0,29.73,WSW,246,2.0,11.0,81,0.00,,,0.00,weatherlink.com 1.10,2013-02-15 09:58:00,
2013-02-15 05:13:00,37.8,33.0,29.74,SW,219,9.0,10.0,82,0.00,,,0.00,weatherlink.com 1.10,2013-02-15 10:13:00,
2013-02-15 05:28:00,38.0,32.0,29.75,West,259,8.0,13.0,79,0.00,,,0.00,weatherlink.com 1.10,2013-02-15 10:28:00,
2013-02-15 05:43:00,37.7,31.0,29.75,SW,229,9.0,12.0,78,0.00,,,0.00,weatherlink.com 1.10,2013-02-15 10:43:00,
2013-02-15 05:58:00,37.6,30.0,29.76,WSW,242,7.0,14.0,75,0.00,,,0.00,weatherlink.com 1.10,2013-02-15 10:58:00,
2013-02-15 06:13:00,37.5,30.0,29.76,WSW,250,7.0,14.0,74,0.00,,,0.00,weatherlink.com 1.10,2013-02-15 11:13:00,
2013-02-15 06:28:00,37.3,29.0,29.76,WSW,239,2.0,12.0,73,0.00,,,0.00,weatherlink.com 1.10,2013-02-15 11:28:00,
2013-02-15 06:43:00,37.1,30.0,29.76,SW,215,1.0,5.0,75,0.00,,,0.00,weatherlink.com 1.10,2013-02-15 11:43:00,
2013-02-15 06:58:00,37.0,30.0,29.77,SW,234,4.0,8.0,77,0.00,,,0.00,weatherlink.com 1.10,2013-02-15 11:58:00,
2013-02-15 07:13:00,36.7,29.0,29.78,SW,234,0.0,8.0,75,0.00,,,0.00,weatherlink.com 1.10,2013-02-15 12:13:00,
2013-02-15 07:28:00,36.7,29.0,29.79,WNW,292,5.0,6.0,75,0.00,,,0.00,weatherlink.com 1.10,2013-02-15 12:28:00,
2013-02-15 07:43:00,36.5,27.0,29.80,WNW,296,5.0,10.0,69,0.00,,,0.00,weatherlink.com 1.10,2013-02-15 12:43:00,
2013-02-15 07:58:00,36.2,27.0,29.81,WNW,294,10.0,18.0,68,0.00,,,0.00,weatherlink.com 1.10,2013-02-15 12:58:00,
2013-02-15 08:14:00,36.0,26.0,29.82,West,274,7.0,14.0,67,0.00,,,0.00,weatherlink.com 1.10,2013-02-15 13:14:00,
2013-02-15 08:29:00,35.9,25.0,29.83,WSW,251,10.0,13.0,66,0.00,,,0.00,weatherlink.com 1.10,2013-02-15 13:29:00,
2013-02-15 08:44:00,36.0,25.0,29.84,WSW,239,9.0,15.0,64,0.00,,,0.00,weatherlink.com 1.10,2013-02-15 13:44:00,
2013-02-15 08:59:00,36.0,24.0,29.84,SW,228,9.0,19.0,63,0.00,,,0.00,weatherlink.com 1.10,2013-02-15 13:59:00,
2013-02-15 09:14:00,35.9,25.0,29.84,West,277,7.0,19.0,66,0.00,,,0.00,weatherlink.com 1.10,2013-02-15 14:14:00,
2013-02-15 09:29:00,36.1,25.0,29.84,West,263,7.0,14.0,64,0.00,,,0.00,weatherlink.com 1.10,2013-02-15 14:29:00,
2013-02-15 09:44:00,36.1,25.0,29.85,WSW,250,6.0,11.0,65,0.00,,,0.00,weatherlink.com 1.10,2013-02-15 14:44:00,
2013-02-15 09:59:00,36.1,25.0,29.85,WSW,250,9.0,19.0,65,0.00,,,0.00,weatherlink.com 1.10,2013-02-15 14:59:00,
2013-02-15 10:14:00,36.3,25.0,29.86,NW,304,10.0,24.0,63,0.00,,,0.00,weatherlink.com 1.10,2013-02-15 15:14:00,
2013-02-15 10:29:00,36.5,25.0,29.86,West,267,7.0,15.0,64,0.00,,,0.00,weatherlink.com 1.10,2013-02-15 15:29:00,
2013-02-15 10:44:00,36.6,25.0,29.86,West,274,9.0,20.0,63,0.00,,,0.00,weatherlink.com 1.10,2013-02-15 15:44:00,
2013-02-15 10:59:00,36.6,26.0,29.86,WSW,242,9.0,19.0,65,0.00,,,0.00,weatherlink.com 1.10,2013-02-15 15:59:00,
2013-02-15 11:14:00,36.6,26.0,29.86,West,274,7.0,18.0,65,0.00,,,0.00,weatherlink.com 1.10,2013-02-15 16:14:00,
2013-02-15 11:29:00,37.0,25.0,29.86,WSW,242,11.0,20.0,62,0.00,,,0.00,weatherlink.com 1.10,2013-02-15 16:29:00,
2013-02-15 11:44:00,37.5,25.0,29.86,WSW,244,11.0,14.0,62,0.00,,,0.00,weatherlink.com 1.10,2013-02-15 16:44:00,
2013-02-15 11:59:00,37.2,26.0,29.86,West,266,11.0,15.0,63,0.00,,,0.00,weatherlink.com 1.10,2013-02-15 16:59:00,
2013-02-15 12:14:00,37.4,26.0,29.85,WSW,257,10.0,21.0,63,0.00,,,0.00,weatherlink.com 1.10,2013-02-15 17:14:00,
2013-02-15 12:29:00,37.3,26.0,29.85,West,261,7.0,16.0,64,0.00,,,0.00,weatherlink.com 1.10,2013-02-15 17:29:00,
2013-02-15 12:44:00,37.6,25.0,29.85,WSW,246,14.0,21.0,61,0.00,,,0.00,weatherlink.com 1.10,2013-02-15 17:44:00,
2013-02-15 12:59:00,38.2,24.0,29.84,West,267,10.0,19.0,58,0.00,,,0.00,weatherlink.com 1.10,2013-02-15 17:59:00,
2013-02-15 13:14:00,38.5,24.0,29.84,West,267,15.0,21.0,57,0.00,,,0.00,weatherlink.com 1.10,2013-02-15 18:14:00,
2013-02-15 13:44:00,36.4,28.0,29.84,North,10,6.0,11.0,72,0.00,,,0.00,weatherlink.com 1.10,2013-02-15 18:44:00,
2013-02-15 13:59:00,36.2,28.0,29.85,North,5,8.0,10.0,71,0.00,,,0.00,weatherlink.com 1.10,2013-02-15 18:59:00,
2013-02-15 14:14:00,36.5,28.0,29.84,NW,325,4.0,9.0,71,0.00,,,0.00,weatherlink.com 1.10,2013-02-15 19:14:00,
2013-02-15 14:29:00,36.5,27.0,29.85,NW,311,4.0,7.0,69,0.00,,,0.00,weatherlink.com 1.10,2013-02-15 19:29:00,
2013-02-15 14:44:00,36.7,27.0,29.85,NW,304,5.0,9.0,69,0.00,,,0.00,weatherlink.com 1.10,2013-02-15 19:44:00,
2013-02-15 14:59:00,36.8,29.0,29.85,NNE,15,4.0,8.0,73,0.00,,,0.00,weatherlink.com 1.10,2013-02-15 19:59:00,
2013-02-15 15:14:00,36.5,27.0,29.85,WNW,303,8.0,12.0,68,0.00,,,0.00,weatherlink.com 1.10,2013-02-15 20:14:00,
2013-02-15 15:29:00,36.1,27.0,29.86,North,5,8.0,11.0,69,0.00,,,0.00,weatherlink.com 1.10,2013-02-15 20:29:00,
2013-02-15 15:44:00,35.5,28.0,29.86,North,5,5.0,8.0,74,0.00,,,0.00,weatherlink.com 1.10,2013-02-15 20:44:00,
2013-02-15 15:59:00,35.6,28.0,29.86,North,355,6.0,9.0,73,0.00,,,0.00,weatherlink.com 1.10,2013-02-15 20:59:00,
2013-02-15 16:14:00,35.4,27.0,29.86,WNW,300,6.0,10.0,72,0.00,,,0.00,weatherlink.com 1.10,2013-02-15 21:14:00,
2013-02-15 16:29:00,35.4,27.0,29.87,WNW,302,8.0,8.0,71,0.00,,,0.00,weatherlink.com 1.10,2013-02-15 21:29:00,
2013-02-15 16:44:00,35.2,27.0,29.87,NW,314,5.0,13.0,71,0.00,,,0.00,weatherlink.com 1.10,2013-02-15 21:44:00,
2013-02-15 16:59:00,34.9,27.0,29.87,NNW,342,8.0,12.0,73,0.00,,,0.00,weatherlink.com 1.10,2013-02-15 21:59:00,
2013-02-15 17:14:00,34.2,26.0,29.88,NNE,13,12.0,14.0,72,0.00,,,0.00,weatherlink.com 1.10,2013-02-15 22:14:00,
2013-02-15 17:29:00,33.8,26.0,29.88,NNE,26,11.0,13.0,73,0.00,,,0.00,weatherlink.com 1.10,2013-02-15 22:29:00,
2013-02-15 17:44:00,33.4,26.0,29.88,NNW,344,4.0,12.0,75,0.00,,,0.00,weatherlink.com 1.10,2013-02-15 22:44:00,
2013-02-15 17:59:00,33.3,26.0,29.89,WNW,300,5.0,12.0,74,0.00,,,0.00,weatherlink.com 1.10,2013-02-15 22:59:00,
2013-02-15 18:14:00,33.2,25.0,29.89,NW,306,5.0,11.0,72,0.00,,,0.00,weatherlink.com 1.10,2013-02-15 23:14:00,
2013-02-15 18:29:00,33.3,24.0,29.90,WNW,290,7.0,10.0,70,0.00,,,0.00,weatherlink.com 1.10,2013-02-15 23:29:00,
2013-02-15 18:44:00,32.8,24.0,29.90,North,360,4.0,12.0,71,0.00,,,0.00,weatherlink.com 1.10,2013-02-15 23:44:00,
2013-02-15 18:59:00,32.4,25.0,29.90,North,5,7.0,11.0,73,0.00,,,0.00,weatherlink.com 1.10,2013-02-15 23:59:00,
2013-02-15 19:14:00,32.5,24.0,29.91,North,360,10.0,11.0,72,0.00,,,0.00,weatherlink.com 1.10,2013-02-16 00:14:00,
2013-02-15 19:29:00,31.9,24.0,29.92,NW,315,7.0,13.0,72,0.00,,,0.00,weatherlink.com 1.10,2013-02-16 00:29:00,
2013-02-15 19:45:00,31.2,24.0,29.91,North,5,6.0,13.0,74,0.00,,,0.00,weatherlink.com 1.10,2013-02-16 00:45:00,
2013-02-15 20:00:00,31.3,24.0,29.92,NNW,345,8.0,10.0,73,0.00,,,0.00,weatherlink.com 1.10,2013-02-16 01:00:00,
2013-02-15 20:15:00,31.2,23.0,29.92,WNW,294,5.0,10.0,73,0.00,,,0.00,weatherlink.com 1.10,2013-02-16 01:15:00,
2013-02-15 20:30:00,31.0,23.0,29.92,NNE,13,6.0,9.0,73,0.00,,,0.00,weatherlink.com 1.10,2013-02-16 01:30:00,
2013-02-15 20:45:00,30.7,23.0,29.92,North,5,3.0,8.0,74,0.00,,,0.00,weatherlink.com 1.10,2013-02-16 01:45:00,
2013-02-15 21:00:00,30.3,23.0,29.93,NNW,335,6.0,9.0,74,0.00,,,0.00,weatherlink.com 1.10,2013-02-16 02:00:00,
2013-02-15 21:15:00,30.3,23.0,29.92,North,350,5.0,11.0,74,0.00,,,0.00,weatherlink.com 1.10,2013-02-16 02:15:00,
2013-02-15 21:30:00,30.3,22.0,29.92,North,5,5.0,13.0,72,0.00,,,0.00,weatherlink.com 1.10,2013-02-16 02:30:00,
2013-02-15 21:45:00,29.9,22.0,29.92,NNW,338,7.0,14.0,72,0.00,,,0.00,weatherlink.com 1.10,2013-02-16 02:45:00,
2013-02-15 22:00:00,29.5,22.0,29.92,WNW,289,9.0,12.0,72,0.00,,,0.00,weatherlink.com 1.10,2013-02-16 03:00:00,
2013-02-15 22:15:00,29.4,20.0,29.93,WSW,250,10.0,15.0,69,0.00,,,0.00,weatherlink.com 1.10,2013-02-16 03:15:00,
2013-02-15 22:30:00,29.0,21.0,29.93,WNW,302,8.0,14.0,71,0.00,,,0.00,weatherlink.com 1.10,2013-02-16 03:30:00,
2013-02-15 22:45:00,29.2,21.0,29.93,West,259,6.0,11.0,72,0.00,,,0.00,weatherlink.com 1.10,2013-02-16 03:45:00,
2013-02-15 23:00:00,29.2,22.0,29.94,NNW,339,9.0,10.0,73,0.00,,,0.00,weatherlink.com 1.10,2013-02-16 04:00:00,
2013-02-15 23:15:00,28.4,23.0,29.93,North,5,8.0,15.0,81,0.00,,,0.00,weatherlink.com 1.10,2013-02-16 04:15:00,
2013-02-15 23:30:00,27.8,23.0,29.93,NNE,21,7.0,11.0,82,0.00,,,0.00,weatherlink.com 1.10,2013-02-16 04:30:00,
2013-02-15 23:45:00,27.5,23.0,29.94,North,350,5.0,13.0,83,0.00,,,0.00,weatherlink.com 1.10,2013-02-16 04:45:00,